User: anonymous   Login
Location: Bouillancy
(49.1149°N, 2.9308°E)
Time: 10:19:59
(UTC+00:00)
Language:

MetOp-A - Orbit

View from above orbital plane
View from above orbital plane
View from above satellite
View from above satellite

Ground track
Ground track

The orbit data is extracted from the following two-line orbital elements,

1 29499U 06044A   20337.95863608  .00000028  00000-0  31937-4 0  9994
2 29499  98.5008  18.7864 0001579 110.7375  14.6579 14.21497419732821
Epoch (UTC): 02 December 2020 23:00:26
Eccentricity: 0.0001579
inclination: 98.5008°
perigee height: 819 km
apogee height: 821 km
right ascension of ascending node: 18.7864°
argument of perigee: 110.7375°
revolutions per day: 14.21497419
mean anomaly at epoch: 14.6579°
orbit number at epoch: 73282

The dashed part of the orbit path shows where the satellite is in the earth's shadow,  

DLR